Weather History for KJER - October, 2013

Change the Weather History Date:

Wednesday, October 16, 2013

  Actual Average Record
Temperature  
Mean Temperature 43 °F 49 °F  
Max Temperature 57 °F 61 °F 84 °F (1991)
Min Temperature 28 °F 37 °F 20 °F (1989)
Degree Days  
Heating Degree Days 22 16  
Month to date heating degree days 300 212  
Since 1 July heating degree days 438 415  
Cooling Degree Days 0 0  
Month to date cooling degree days 0 0  
Year to date cooling degree days 904 509  
Moisture  
Dew Point 24 °F    
Average Humidity 49    
Maximum Humidity 72    
Minimum Humidity 25    
Precipitation  
Precipitation 0.00 in 0.03 in 0.37 in (1969)
Month to date precipitation 0.02 0.37  
Year to date precipitation 3.04 7.66  
Sea Level Pressure  
Sea Level Pressure 30.18 in    
Wind  
Wind Speed 5 mph (SSE)    
Max Wind Speed 12 mph    
Max Gust Speed 15 mph    
Visibility 10 miles    
Events      
T = Trace of Precipitation, MM = Missing Value Source: NWS Daily Summary

Daily Weather History Graph

Daily Weather History Graph

Search for Another Location

Airport or City:

Trip Planner

Search our weather history database for the weather conditions in past years. The results will help you decide how hot, cold, wet, or windy it might be!

Date:

Astronomy

Oct. 16, 2013 Rise Set
Actual Time 7:52 AM MDT 6:53 PM MDT
Civil Twilight 7:24 AM MDT 7:21 PM MDT
Nautical Twilight 6:51 AM MDT 7:54 PM MDT
Astronomical Twilight 6:18 AM MDT 8:27 PM MDT
Moon 5:37 PM MDT (10/16) 5:22 AM MDT (10/16)
Length of Visible Light 11h 57m
Length of Day
11h 00m
Waxing Gibbous, 94% of the Moon is Illuminated
Oct 16
Waxing Gibbous
Oct 18
Full
Oct 26
Last Quarter
Nov 3
New
Nov 9
First Quarter

Hourly Weather History & Observations

Time (MDT) Temp. Windchill Dew Point Humidity Pressure Visibility Wind Dir Wind Speed Gust Speed Precip Events Conditions
12:53 AM 36.0 °F 31.1 °F 25.0 °F 64% 30.25 in 10.0 mi SSE 5.8 mph - N/A   Clear
1:53 AM 36.0 °F 31.1 °F 25.0 °F 64% 30.24 in 10.0 mi SSE 5.8 mph - N/A   Clear
2:53 AM 33.1 °F 26.9 °F 24.1 °F 70% 30.24 in 10.0 mi SE 6.9 mph - N/A   Clear
3:53 AM 32.0 °F 26.4 °F 24.1 °F 73% 30.24 in 10.0 mi SE 5.8 mph - N/A   Clear
4:53 AM 30.9 °F 25.2 °F 23.0 °F 72% 30.23 in 10.0 mi ESE 5.8 mph - N/A   Clear
5:53 AM 33.1 °F - 21.9 °F 64% 30.22 in 10.0 mi Calm Calm - N/A   Clear
6:53 AM 30.9 °F 25.2 °F 23.0 °F 72% 30.22 in 10.0 mi ESE 5.8 mph - N/A   Clear
7:53 AM 30.0 °F 25.2 °F 21.9 °F 72% 30.24 in 10.0 mi ESE 4.6 mph - N/A   Clear
8:53 AM 36.0 °F 33.3 °F 25.0 °F 64% 30.24 in 10.0 mi ESE 3.5 mph - N/A   Clear
9:53 AM 41.0 °F 38.0 °F 24.1 °F 51% 30.24 in 10.0 mi Variable 4.6 mph - N/A   Clear
10:53 AM 45.0 °F 43.5 °F 25.0 °F 46% 30.23 in 3.0 mi Variable 3.5 mph - N/A   Haze
11:53 AM 48.0 °F - 25.0 °F 41% 30.22 in 10.0 mi SW 3.5 mph - N/A   Clear
12:53 PM 51.1 °F - 26.1 °F 38% 30.20 in 10.0 mi WSW 4.6 mph - N/A   Clear
1:53 PM 53.1 °F - 25.0 °F 34% 30.17 in 10.0 mi Variable 4.6 mph - N/A   Clear
2:53 PM 54.0 °F - 24.1 °F 31% 30.16 in 10.0 mi West 9.2 mph - N/A   Clear
3:53 PM 55.9 °F - 23.0 °F 28% 30.14 in 10.0 mi WSW 10.4 mph - N/A   Clear
4:53 PM 57.0 °F - 23.0 °F 27% 30.12 in 10.0 mi West 6.9 mph - N/A   Clear
5:53 PM 55.9 °F - 21.0 °F 26% 30.11 in 10.0 mi West 6.9 mph - N/A   Clear
6:53 PM 52.0 °F - 25.0 °F 35% 30.11 in 10.0 mi South 4.6 mph - N/A   Clear
7:53 PM 48.9 °F - 25.0 °F 39% 30.12 in 10.0 mi South 5.8 mph - N/A   Clear
8:53 PM 45.0 °F 42.6 °F 24.1 °F 44% 30.12 in 10.0 mi SE 4.6 mph - N/A   Clear
9:53 PM 44.1 °F 41.5 °F 24.1 °F 45% 30.13 in 10.0 mi SE 4.6 mph - N/A   Clear
10:53 PM 46.0 °F 43.9 °F 25.0 °F 44% 30.12 in 10.0 mi South 4.6 mph - N/A   Partly Cloudy
11:53 PM 42.1 °F 38.4 °F 25.0 °F 51% 30.11 in 10.0 mi SSE 5.8 mph - N/A   Clear